Regional Weather Roundup
Issued by NWS Albany, NY

Home | Current Version | Previous Version | Graphics & Text | Print | Product List | Glossary Off
Versions: 1 2 3 4 5 6 7 8 9 10 11 12 13 14 15 16 17 18 19 20 21 22 23 24 25 26 27 28 29 30 31 32 33 34 35 36 37 38 39 40 41 42 43 44 45 46 47 48 49 50

000
ASUS41 KALY 290710
RWRALY

NEW YORK STATE HOURLY WEATHER ROUNDUP
NATIONAL WEATHER SERVICE ALBANY NY
300 AM EDT MON AUG 29 2016

NOTE: "FAIR" INDICATES FEW OR NO CLOUDS BELOW 12,000 FEET WITH NO
SIGNIFICANT WEATHER AND/OR NO OBSTRUCTIONS TO VISIBILITY.

NYZ032-033-038>043-046>054-057>066-NYZ062>081-082-084-290800-
EAST


CITY           SKY/WX    TMP DP  RH WIND       PRES   REMARKS
ALBANY         MOCLDY    74  64  71 S8        30.09S
GLENS FALLS    CLOUDY    72  65  78 S7        30.06F
POUGHKEEPSIE   MOCLDY    71  64  78 CALM      30.10F
NEWBURGH       PTCLDY    72  66  83 CALM      30.14
MONTGOMERY     PTCLDY    69  65  86 CALM      30.12F
WHITE PLAINS   MOCLDY    73  63  70 SW5       30.14F
ISLIP          CLOUDY    74  68  81 SW7       30.14F
NEW YORK CITY  MOCLDY    77  65  66 SW9       30.14S
CENTRAL PARK   PTCLDY    75  62  64 W3        30.17F
$$

NYZ005>009-017-018-044>046-055-056-290800-
CENTRAL


CITY           SKY/WX    TMP DP  RH WIND       PRES   REMARKS
FULTON         CLOUDY    71  64  78 NW7       30.15S
SYRACUSE       CLOUDY    72  66  81 W12       30.13S
ROME           CLOUDY    68  67  96 CALM      30.13S
ELMIRA         MOCLDY    72  66  81 CALM      30.15F
BINGHAMTON     CLOUDY    71  68  90 N6        30.17F
MONTICELLO     CLOUDY    66  63  88 SW5       30.17F
$$

NYZ026>034-041>043-087-290800-
NORTH


CITY           SKY/WX    TMP DP  RH WIND       PRES   REMARKS
WATERTOWN      CLEAR     67  61  81 W5        30.13R
FORT DRUM      NOT AVBL
MASSENA        CLEAR     69  62  78 W8        30.09R
SARANAC LAKE   CLOUDY    68  62  81 W5        30.12R
PLATTSBURGH    CLEAR     69  67  93 W3        30.04R
$$

NYZ001>004-010>016-019>021-085-290800-
WEST


CITY           SKY/WX    TMP DP  RH WIND       PRES   REMARKS
NIAGARA FALLS    N/A    N/A N/A N/A MISG      30.19S
BUFFALO        PTCLDY    69  63  81 NW5       30.19S
DUNKIRK        CLOUDY    73  63  70 N7        30.21R
JAMESTOWN      PTCLDY    70  64  83 N9        30.23S
WELLSVILLE     CLOUDY    69  65  86 W7        30.24F
ROCHESTER      MOCLDY    71  64  78 W5        30.19R
PENN YAN       CLOUDY    72  65  78 CALM      30.18F
$$

             KEY
       WCI = WIND CHILL INDEX
       VSB = VISIBILITY
       HX  = HEAT INDEX
$$



USA.gov is the U.S. government's official web portal to all federal, state and local government web resources and services.